Time,TemperatureF,DewpointF,PressureIn,WindDirection,WindDirectionDegrees,WindSpeedMPH,WindSpeedGustMPH,Humidity,HourlyPrecipIn,Conditions,Clouds,dailyrainin,SoftwareType,DateUTC
2013-03-25 00:36:00,47.3,16.1,29.99,North,350,0.0,0.0,28,0.00,,---,0.00,VWS V12.07,2013-03-25 07:36:00,
2013-03-25 00:41:00,47.4,16.6,29.99,North,350,0.0,0.0,29,0.00,,---,0.00,VWS V12.07,2013-03-25 07:41:00,
2013-03-25 00:46:00,47.0,16.6,29.99,North,350,0.0,0.0,29,0.00,,---,0.00,VWS V12.07,2013-03-25 07:46:00,
2013-03-25 00:51:00,46.8,16.7,29.99,North,350,0.0,0.0,30,0.00,,---,0.00,VWS V12.07,2013-03-25 07:51:00,
2013-03-25 00:56:00,46.4,16.5,29.99,North,350,0.0,0.0,30,0.00,,---,0.00,VWS V12.07,2013-03-25 07:56:00,
2013-03-25 01:00:00,46.3,16.8,29.99,North,350,0.0,0.0,30,0.00,,---,0.00,VWS V12.07,2013-03-25 08:00:00,
2013-03-25 01:01:00,46.1,16.9,29.99,North,350,0.0,0.0,31,0.00,,---,0.00,VWS V12.07,2013-03-25 08:01:00,
2013-03-25 01:06:00,46.1,16.6,29.99,North,350,0.0,0.0,30,0.00,,---,0.00,VWS V12.07,2013-03-25 08:06:00,
2013-03-25 01:12:00,46.7,16.4,29.99,NW,305,0.0,5.5,29,0.00,,---,0.00,VWS V12.07,2013-03-25 08:12:00,
2013-03-25 01:17:00,47.3,16.4,29.99,WNW,287,0.0,5.5,29,0.00,,---,0.00,VWS V12.07,2013-03-25 08:17:00,
2013-03-25 01:22:00,47.5,16.4,29.99,WNW,287,0.0,5.5,28,0.00,,---,0.00,VWS V12.07,2013-03-25 08:22:00,
2013-03-25 01:27:00,47.4,16.3,29.99,NE,55,0.0,5.5,28,0.00,,---,0.00,VWS V12.07,2013-03-25 08:27:00,
2013-03-25 01:30:00,47.5,16.5,29.99,NE,55,0.0,5.5,29,0.00,,---,0.00,VWS V12.07,2013-03-25 08:30:00,
2013-03-25 01:32:00,47.5,16.4,30.00,NE,55,0.0,5.5,28,0.00,,---,0.00,VWS V12.07,2013-03-25 08:32:00,
2013-03-25 01:37:00,47.5,16.7,29.99,NE,55,0.0,5.5,29,0.00,,---,0.00,VWS V12.07,2013-03-25 08:37:00,
2013-03-25 01:42:00,47.2,16.5,29.99,NE,55,0.0,5.5,29,0.00,,---,0.00,VWS V12.07,2013-03-25 08:42:00,
2013-03-25 01:48:00,47.1,16.7,29.99,NE,55,0.0,5.5,29,0.00,,---,0.00,VWS V12.07,2013-03-25 08:48:00,
2013-03-25 01:53:00,46.6,17.5,29.99,NE,55,0.0,5.5,31,0.00,,---,0.00,VWS V12.07,2013-03-25 08:53:00,
2013-03-25 01:58:00,45.9,16.9,29.99,NE,55,0.0,0.0,31,0.00,,---,0.00,VWS V12.07,2013-03-25 08:58:00,
2013-03-25 02:00:00,45.8,16.9,29.99,NE,55,0.0,0.0,31,0.00,,---,0.00,VWS V12.07,2013-03-25 09:00:00,
2013-03-25 02:03:00,45.5,16.9,29.99,NE,55,0.0,0.0,31,0.00,,---,0.00,VWS V12.07,2013-03-25 09:03:00,
2013-03-25 02:08:00,45.2,16.6,29.99,NE,55,0.0,0.0,31,0.00,,---,0.00,VWS V12.07,2013-03-25 09:08:00,
2013-03-25 02:13:00,45.0,16.6,29.99,NE,55,0.0,0.0,32,0.00,,---,0.00,VWS V12.07,2013-03-25 09:13:00,
2013-03-25 02:18:00,44.4,16.7,29.99,NE,55,0.0,0.0,32,0.00,,---,0.00,VWS V12.07,2013-03-25 09:18:00,
2013-03-25 02:23:00,43.8,16.8,29.99,NE,55,0.0,0.0,33,0.00,,---,0.00,VWS V12.07,2013-03-25 09:23:00,
2013-03-25 02:28:00,43.2,16.7,29.99,NE,55,0.0,0.0,34,0.00,,---,0.00,VWS V12.07,2013-03-25 09:28:00,
2013-03-25 02:30:00,43.1,16.7,29.99,NE,55,0.0,0.0,34,0.00,,---,0.00,VWS V12.07,2013-03-25 09:30:00,
2013-03-25 02:33:00,42.9,16.5,29.99,NE,55,0.0,0.0,34,0.00,,---,0.00,VWS V12.07,2013-03-25 09:33:00,
2013-03-25 02:38:00,42.9,16.5,29.99,NE,55,0.0,0.0,34,0.00,,---,0.00,VWS V12.07,2013-03-25 09:38:00,
2013-03-25 02:43:00,43.1,16.2,29.99,NE,55,0.0,0.0,33,0.00,,---,0.00,VWS V12.07,2013-03-25 09:43:00,
2013-03-25 02:48:00,43.3,16.0,29.99,NE,55,0.0,0.0,33,0.00,,---,0.00,VWS V12.07,2013-03-25 09:48:00,
2013-03-25 02:53:00,43.5,16.4,29.98,NE,55,0.0,0.0,33,0.00,,---,0.00,VWS V12.07,2013-03-25 09:53:00,
2013-03-25 02:58:00,43.0,16.0,29.98,NE,55,0.0,0.0,33,0.00,,---,0.00,VWS V12.07,2013-03-25 09:58:00,
2013-03-25 03:00:00,42.9,15.8,29.99,NE,55,0.0,0.0,33,0.00,,---,0.00,VWS V12.07,2013-03-25 10:00:00,
2013-03-25 03:03:00,43.0,15.8,29.98,NE,55,0.0,0.0,33,0.00,,---,0.00,VWS V12.07,2013-03-25 10:03:00,
2013-03-25 03:08:00,43.2,16.2,29.98,NE,55,0.0,0.0,33,0.00,,---,0.00,VWS V12.07,2013-03-25 10:08:00,
2013-03-25 03:13:00,43.2,16.1,29.98,NE,55,0.0,0.0,33,0.00,,---,0.00,VWS V12.07,2013-03-25 10:13:00,
2013-03-25 03:18:00,43.1,15.9,29.98,NE,55,0.0,0.0,33,0.00,,---,0.00,VWS V12.07,2013-03-25 10:18:00,
2013-03-25 03:23:00,43.0,16.3,29.98,NE,55,0.0,0.0,34,0.00,,---,0.00,VWS V12.07,2013-03-25 10:23:00,
2013-03-25 03:28:00,42.9,15.6,29.98,NE,55,0.0,0.0,33,0.00,,---,0.00,VWS V12.07,2013-03-25 10:28:00,
2013-03-25 03:30:00,43.0,15.8,29.98,NE,55,0.0,0.0,33,0.00,,---,0.00,VWS V12.07,2013-03-25 10:30:00,
2013-03-25 03:33:00,43.0,16.6,29.98,NE,55,0.0,0.0,34,0.00,,---,0.00,VWS V12.07,2013-03-25 10:33:00,
2013-03-25 03:38:00,42.6,17.2,29.99,NE,55,0.0,0.0,36,0.00,,---,0.00,VWS V12.07,2013-03-25 10:38:00,
2013-03-25 03:43:00,42.1,17.5,29.98,NE,55,0.0,0.0,37,0.00,,---,0.00,VWS V12.07,2013-03-25 10:43:00,
2013-03-25 03:48:00,41.4,17.1,29.99,NE,55,0.0,0.0,37,0.00,,---,0.00,VWS V12.07,2013-03-25 10:48:00,
2013-03-25 03:53:00,41.0,16.8,29.98,NE,55,0.0,0.0,37,0.00,,---,0.00,VWS V12.07,2013-03-25 10:53:00,
2013-03-25 03:58:00,41.1,16.3,29.98,NW,304,0.0,3.1,36,0.00,,---,0.00,VWS V12.07,2013-03-25 10:58:00,
2013-03-25 04:00:00,41.3,16.4,29.98,NW,304,0.0,3.1,36,0.00,,---,0.00,VWS V12.07,2013-03-25 11:00:00,
2013-03-25 04:03:00,41.8,16.5,29.99,West,281,0.0,3.5,36,0.00,,---,0.00,VWS V12.07,2013-03-25 11:03:00,
2013-03-25 04:09:00,42.6,16.5,29.99,WNW,302,4.3,4.5,34,0.00,,---,0.00,VWS V12.07,2013-03-25 11:09:00,
2013-03-25 04:14:00,43.2,16.5,29.99,NW,305,0.0,4.5,34,0.00,,---,0.00,VWS V12.07,2013-03-25 11:14:00,
2013-03-25 04:19:00,43.4,16.4,29.99,NW,305,0.0,4.5,33,0.00,,---,0.00,VWS V12.07,2013-03-25 11:19:00,
2013-03-25 04:24:00,43.7,16.6,29.99,WNW,298,0.0,6.0,33,0.00,,---,0.00,VWS V12.07,2013-03-25 11:24:00,
2013-03-25 04:29:00,43.8,16.5,29.99,WNW,298,0.0,6.0,33,0.00,,---,0.00,VWS V12.07,2013-03-25 11:29:00,
2013-03-25 04:30:00,43.9,16.5,29.99,WNW,298,0.0,6.0,33,0.00,,---,0.00,VWS V12.07,2013-03-25 11:30:00,
2013-03-25 04:34:00,43.9,16.5,29.99,WNW,298,0.0,6.0,33,0.00,,---,0.00,VWS V12.07,2013-03-25 11:34:00,
2013-03-25 04:39:00,43.8,16.5,29.99,WNW,298,0.0,6.0,33,0.00,,---,0.00,VWS V12.07,2013-03-25 11:39:00,
2013-03-25 04:44:00,43.4,16.4,29.99,WNW,298,0.0,6.0,33,0.00,,---,0.00,VWS V12.07,2013-03-25 11:44:00,
2013-03-25 04:49:00,43.2,16.5,29.99,WNW,298,0.0,6.0,34,0.00,,---,0.00,VWS V12.07,2013-03-25 11:49:00,
2013-03-25 04:54:00,43.0,16.5,29.99,WNW,298,0.0,6.0,34,0.00,,---,0.00,VWS V12.07,2013-03-25 11:54:00,
2013-03-25 04:59:00,42.5,16.9,30.00,WNW,298,0.0,0.0,35,0.00,,---,0.00,VWS V12.07,2013-03-25 11:59:00,
2013-03-25 05:00:00,42.6,17.0,30.00,WNW,298,0.0,0.0,35,0.00,,---,0.00,VWS V12.07,2013-03-25 12:00:00,
2013-03-25 05:04:00,42.1,17.1,30.00,WNW,298,0.0,0.0,36,0.00,,---,0.00,VWS V12.07,2013-03-25 12:04:00,
2013-03-25 05:09:00,41.6,17.2,30.00,WNW,298,0.0,0.0,37,0.00,,---,0.00,VWS V12.07,2013-03-25 12:09:00,
2013-03-25 05:14:00,41.2,17.0,30.00,WNW,298,0.0,0.0,37,0.00,,---,0.00,VWS V12.07,2013-03-25 12:14:00,
2013-03-25 05:19:00,40.9,17.1,30.00,WNW,298,0.0,0.0,38,0.00,,---,0.00,VWS V12.07,2013-03-25 12:19:00,
2013-03-25 05:24:00,40.7,17.4,30.01,WNW,298,0.0,0.0,38,0.00,,---,0.00,VWS V12.07,2013-03-25 12:24:00,
2013-03-25 05:29:00,40.3,17.5,30.01,WNW,298,0.0,0.0,39,0.00,,---,0.00,VWS V12.07,2013-03-25 12:29:00,
2013-03-25 05:30:00,40.3,17.6,30.01,WNW,298,0.0,0.0,39,0.00,,---,0.00,VWS V12.07,2013-03-25 12:30:00,
2013-03-25 05:34:00,40.1,17.7,30.01,WNW,298,0.0,0.0,40,0.00,,---,0.00,VWS V12.07,2013-03-25 12:34:00,
2013-03-25 05:39:00,39.7,17.4,30.01,WNW,298,0.0,0.0,40,0.00,,---,0.00,VWS V12.07,2013-03-25 12:39:00,
2013-03-25 05:44:00,39.8,17.2,30.01,WNW,298,0.0,0.0,40,0.00,,---,0.00,VWS V12.07,2013-03-25 12:44:00,
2013-03-25 05:49:00,39.9,17.0,30.02,WNW,298,0.0,0.0,39,0.00,,---,0.00,VWS V12.07,2013-03-25 12:49:00,
2013-03-25 05:54:00,40.3,16.9,30.02,WNW,298,0.0,0.0,38,0.00,,---,0.00,VWS V12.07,2013-03-25 12:54:00,
2013-03-25 05:59:00,40.7,17.0,30.02,WNW,298,0.0,0.0,38,0.00,,---,0.00,VWS V12.07,2013-03-25 12:59:00,
2013-03-25 06:00:00,40.7,17.0,30.02,WNW,298,0.0,0.0,38,0.00,,---,0.00,VWS V12.07,2013-03-25 13:00:00,
2013-03-25 06:04:00,40.7,17.1,30.02,WNW,298,0.0,0.0,38,0.00,,---,0.00,VWS V12.07,2013-03-25 13:04:00,
2013-03-25 06:09:00,40.7,17.1,30.02,WNW,298,0.0,0.0,38,0.00,,---,0.00,VWS V12.07,2013-03-25 13:09:00,
2013-03-25 06:14:00,40.8,17.1,30.02,NW,304,0.0,3.4,38,0.00,,---,0.00,VWS V12.07,2013-03-25 13:14:00,
2013-03-25 06:19:00,41.0,17.0,30.02,NW,304,0.0,3.4,38,0.00,,---,0.00,VWS V12.07,2013-03-25 13:19:00,
2013-03-25 06:24:00,41.3,17.1,30.02,NW,304,0.0,3.4,37,0.00,,---,0.00,VWS V12.07,2013-03-25 13:24:00,
2013-03-25 06:29:00,41.5,17.0,30.02,NW,304,0.0,3.4,37,0.00,,---,0.00,VWS V12.07,2013-03-25 13:29:00,
2013-03-25 06:30:00,41.5,17.0,30.02,NW,304,0.0,3.4,37,0.00,,---,0.00,VWS V12.07,2013-03-25 13:30:00,
2013-03-25 06:34:00,41.6,17.6,30.03,NW,304,0.0,3.4,38,0.00,,---,0.00,VWS V12.07,2013-03-25 13:34:00,
2013-03-25 06:39:00,41.4,17.4,30.03,NW,304,0.0,3.4,38,0.00,,---,0.00,VWS V12.07,2013-03-25 13:39:00,
2013-03-25 06:45:00,41.3,17.3,30.03,NW,304,0.0,3.4,38,0.00,,---,0.00,VWS V12.07,2013-03-25 13:45:00,
2013-03-25 06:50:00,41.6,17.3,30.03,NW,304,0.0,3.4,37,0.00,,---,0.00,VWS V12.07,2013-03-25 13:50:00,
2013-03-25 06:55:00,41.9,17.4,30.03,NW,304,0.0,3.4,37,0.00,,---,0.00,VWS V12.07,2013-03-25 13:55:00,
2013-03-25 07:00:00,42.4,17.6,30.03,NW,304,0.0,0.0,36,0.00,,---,0.00,VWS V12.07,2013-03-25 14:00:00,
2013-03-25 07:05:00,42.8,17.8,30.04,NW,304,0.0,0.0,36,0.00,,---,0.00,VWS V12.07,2013-03-25 14:05:00,
2013-03-25 07:10:00,43.8,18.5,30.04,NW,304,0.0,0.0,36,0.00,,---,0.00,VWS V12.07,2013-03-25 14:10:00,
2013-03-25 07:15:00,44.3,19.8,30.04,NW,304,0.0,0.0,37,0.00,,---,0.00,VWS V12.07,2013-03-25 14:15:00,
2013-03-25 07:20:00,44.6,19.9,30.04,NW,304,0.0,0.0,37,0.00,,---,0.00,VWS V12.07,2013-03-25 14:20:00,
2013-03-25 07:25:00,44.5,19.7,30.04,NW,304,0.0,0.0,37,0.00,,---,0.00,VWS V12.07,2013-03-25 14:25:00,
2013-03-25 07:30:00,44.5,19.4,30.04,North,4,0.0,3.2,36,0.00,,---,0.00,VWS V12.07,2013-03-25 14:30:00,
2013-03-25 07:35:00,44.7,19.5,30.04,NNW,345,3.3,3.3,36,0.00,,---,0.00,VWS V12.07,2013-03-25 14:35:00,
2013-03-25 07:40:00,44.7,19.3,30.05,North,356,0.0,4.3,36,0.00,,---,0.00,VWS V12.07,2013-03-25 14:40:00,
2013-03-25 07:45:00,45.1,19.6,30.05,North,356,0.0,4.3,36,0.00,,---,0.00,VWS V12.07,2013-03-25 14:45:00,
2013-03-25 07:50:00,45.6,19.6,30.05,North,356,0.0,4.3,35,0.00,,---,0.00,VWS V12.07,2013-03-25 14:50:00,
2013-03-25 07:55:00,46.1,19.8,30.05,WNW,300,0.0,4.3,35,0.00,,---,0.00,VWS V12.07,2013-03-25 14:55:00,
2013-03-25 08:00:00,46.7,20.0,30.05,North,10,0.0,4.3,34,0.00,,---,0.00,VWS V12.07,2013-03-25 15:00:00,
2013-03-25 08:05:00,47.2,19.6,30.05,North,1,0.0,6.2,33,0.00,,---,0.00,VWS V12.07,2013-03-25 15:05:00,
2013-03-25 08:10:00,47.7,19.6,30.05,North,1,0.0,6.2,32,0.00,,---,0.00,VWS V12.07,2013-03-25 15:10:00,
2013-03-25 08:15:00,48.1,19.8,30.05,North,1,0.0,6.2,32,0.00,,---,0.00,VWS V12.07,2013-03-25 15:15:00,
2013-03-25 08:20:00,48.9,20.4,30.05,NNE,28,0.0,6.2,32,0.00,,---,0.00,VWS V12.07,2013-03-25 15:20:00,
2013-03-25 08:25:00,49.5,21.0,30.05,NE,35,0.0,6.2,32,0.00,,---,0.00,VWS V12.07,2013-03-25 15:25:00,
2013-03-25 08:30:00,50.1,20.6,30.06,NE,35,0.0,6.2,31,0.00,,---,0.00,VWS V12.07,2013-03-25 15:30:00,
2013-03-25 08:35:00,50.9,19.8,30.05,NE,35,0.0,6.2,29,0.00,,---,0.00,VWS V12.07,2013-03-25 15:35:00,
2013-03-25 08:40:00,51.4,19.1,30.06,NE,37,0.0,6.2,28,0.00,,---,0.00,VWS V12.07,2013-03-25 15:40:00,
2013-03-25 08:45:00,52.2,18.8,30.06,North,7,3.1,6.2,26,0.00,,---,0.00,VWS V12.07,2013-03-25 15:45:00,
2013-03-25 08:50:00,52.9,18.7,30.06,ENE,70,0.0,6.2,26,0.00,,---,0.00,VWS V12.07,2013-03-25 15:50:00,
2013-03-25 08:55:00,53.4,18.5,30.06,NE,41,0.0,5.2,25,0.00,,---,0.00,VWS V12.07,2013-03-25 15:55:00,
2013-03-25 09:00:00,54.0,18.7,30.05,NNE,32,0.0,5.2,25,0.00,,---,0.00,VWS V12.07,2013-03-25 16:00:00,
2013-03-25 09:05:00,54.7,19.0,30.05,NNE,32,0.0,5.2,24,0.00,,---,0.00,VWS V12.07,2013-03-25 16:05:00,
2013-03-25 09:10:00,55.4,19.2,30.05,NNE,32,0.0,5.2,24,0.00,,---,0.00,VWS V12.07,2013-03-25 16:10:00,
2013-03-25 09:15:00,55.8,19.3,30.05,NNE,32,0.0,5.2,24,0.00,,---,0.00,VWS V12.07,2013-03-25 16:15:00,
2013-03-25 09:20:00,56.2,18.9,30.05,NNE,32,0.0,5.2,23,0.00,,---,0.00,VWS V12.07,2013-03-25 16:20:00,
2013-03-25 09:25:00,56.7,18.9,30.05,NNE,32,0.0,5.2,23,0.00,,---,0.00,VWS V12.07,2013-03-25 16:25:00,
2013-03-25 09:30:00,57.3,19.3,30.05,NNE,32,0.0,5.2,22,0.00,,---,0.00,VWS V12.07,2013-03-25 16:30:00,
2013-03-25 09:35:00,57.9,17.2,30.05,North,6,0.0,5.2,20,0.00,,---,0.00,VWS V12.07,2013-03-25 16:35:00,
2013-03-25 09:40:00,58.4,18.1,30.05,North,6,0.0,5.2,20,0.00,,---,0.00,VWS V12.07,2013-03-25 16:40:00,
2013-03-25 09:45:00,58.9,17.5,30.05,North,6,0.0,5.2,20,0.00,,---,0.00,VWS V12.07,2013-03-25 16:45:00,
2013-03-25 09:50:00,59.4,17.1,30.05,NE,56,0.0,5.2,19,0.00,,---,0.00,VWS V12.07,2013-03-25 16:50:00,
2013-03-25 09:55:00,59.5,17.0,30.05,NNE,15,3.2,4.5,19,0.00,,---,0.00,VWS V12.07,2013-03-25 16:55:00,
2013-03-25 10:00:00,59.7,16.1,30.05,NE,46,4.2,4.7,18,0.00,,---,0.00,VWS V12.07,2013-03-25 17:00:00,
2013-03-25 10:05:00,59.8,16.1,30.05,NNE,28,0.0,5.2,18,0.00,,---,0.00,VWS V12.07,2013-03-25 17:05:00,
2013-03-25 10:10:00,60.0,15.8,30.05,NNE,28,0.0,5.2,18,0.00,,---,0.00,VWS V12.07,2013-03-25 17:10:00,
2013-03-25 10:15:00,60.3,15.7,30.05,NNE,28,1.7,5.2,17,0.00,,---,0.00,VWS V12.07,2013-03-25 17:15:00,
2013-03-25 10:20:00,60.5,16.2,30.05,NNE,28,0.0,5.2,18,0.00,,---,0.00,VWS V12.07,2013-03-25 17:20:00,
2013-03-25 10:25:00,61.0,16.4,30.05,NE,53,0.0,5.2,17,0.00,,---,0.00,VWS V12.07,2013-03-25 17:25:00,
2013-03-25 10:30:00,61.3,16.3,30.05,NE,53,0.0,5.2,17,0.00,,---,0.00,VWS V12.07,2013-03-25 17:30:00,
2013-03-25 10:35:00,61.7,16.9,30.05,NE,53,0.0,5.2,17,0.00,,---,0.00,VWS V12.07,2013-03-25 17:35:00,
2013-03-25 10:41:00,62.6,16.4,30.04,NE,53,0.0,5.2,16,0.00,,---,0.00,VWS V12.07,2013-03-25 17:41:00,
2013-03-25 10:45:00,63.0,16.6,30.04,NE,53,0.0,5.2,16,0.00,,---,0.00,VWS V12.07,2013-03-25 17:45:00,
2013-03-25 10:50:00,63.3,15.9,30.04,SSW,208,0.0,5.2,16,0.00,,---,0.00,VWS V12.07,2013-03-25 17:50:00,
2013-03-25 10:55:00,63.4,15.9,30.04,SSW,208,0.0,4.1,16,0.00,,---,0.00,VWS V12.07,2013-03-25 17:55:00,
2013-03-25 11:00:00,63.2,15.9,30.04,SSW,208,0.0,4.1,16,0.00,,---,0.00,VWS V12.07,2013-03-25 18:00:00,
2013-03-25 11:05:00,63.7,15.4,30.04,SSW,208,0.0,4.1,15,0.00,,---,0.00,VWS V12.07,2013-03-25 18:05:00,
2013-03-25 11:11:00,64.2,15.3,30.03,WSW,249,0.0,5.5,15,0.00,,---,0.00,VWS V12.07,2013-03-25 18:11:00,
2013-03-25 11:15:00,64.4,15.3,30.03,WSW,243,0.0,5.5,15,0.00,,---,0.00,VWS V12.07,2013-03-25 18:15:00,
2013-03-25 11:21:00,64.9,15.1,30.03,WSW,243,0.0,5.5,14,0.00,,---,0.00,VWS V12.07,2013-03-25 18:21:00,
2013-03-25 11:26:00,65.4,16.4,30.03,WSW,243,0.0,5.5,15,0.00,,---,0.00,VWS V12.07,2013-03-25 18:26:00,
2013-03-25 11:30:00,66.2,15.9,30.03,SSE,153,0.0,5.5,14,0.00,,---,0.00,VWS V12.07,2013-03-25 18:30:00,
2013-03-25 11:31:00,66.4,15.9,30.03,South,184,3.4,5.5,14,0.00,,---,0.00,VWS V12.07,2013-03-25 18:31:00,
2013-03-25 11:36:00,66.7,15.7,30.02,South,180,3.0,5.5,14,0.00,,---,0.00,VWS V12.07,2013-03-25 18:36:00,
2013-03-25 11:41:00,66.7,15.5,30.02,SSW,210,0.0,5.6,14,0.00,,---,0.00,VWS V12.07,2013-03-25 18:41:00,
2013-03-25 11:46:00,66.9,15.4,30.02,SSW,210,0.0,5.6,14,0.00,,---,0.00,VWS V12.07,2013-03-25 18:46:00,
2013-03-25 11:51:00,66.9,15.0,30.02,NE,38,0.0,5.6,13,0.00,,---,0.00,VWS V12.07,2013-03-25 18:51:00,
2013-03-25 11:56:00,67.2,15.6,30.01,SE,145,0.0,5.6,14,0.00,,---,0.00,VWS V12.07,2013-03-25 18:56:00,
2013-03-25 12:00:00,67.1,15.5,30.01,South,184,0.0,8.0,14,0.00,,---,0.00,VWS V12.07,2013-03-25 19:00:00,
2013-03-25 12:01:00,67.3,15.5,30.01,South,169,0.0,8.3,13,0.00,,---,0.00,VWS V12.07,2013-03-25 19:01:00,
2013-03-25 12:06:00,67.8,16.1,30.01,SSW,198,0.0,8.3,14,0.00,,---,0.00,VWS V12.07,2013-03-25 19:06:00,
2013-03-25 12:11:00,67.7,16.5,30.01,SSW,198,0.0,8.3,14,0.00,,---,0.00,VWS V12.07,2013-03-25 19:11:00,
2013-03-25 12:16:00,68.0,17.1,30.01,East,84,0.0,8.3,14,0.00,,---,0.00,VWS V12.07,2013-03-25 19:16:00,
2013-03-25 12:21:00,68.2,17.4,30.01,East,101,0.0,8.3,14,0.00,,---,0.00,VWS V12.07,2013-03-25 19:21:00,
2013-03-25 12:26:00,68.5,17.5,30.00,NNE,30,4.3,8.3,14,0.00,,---,0.00,VWS V12.07,2013-03-25 19:26:00,
2013-03-25 12:30:00,68.6,17.2,30.00,East,96,3.4,10.7,14,0.00,,---,0.00,VWS V12.07,2013-03-25 19:30:00,
2013-03-25 12:32:00,68.9,17.4,30.00,ENE,72,3.2,10.7,14,0.00,,---,0.00,VWS V12.07,2013-03-25 19:32:00,
2013-03-25 12:37:00,69.0,17.5,30.00,NE,53,0.0,10.7,14,0.00,,---,0.00,VWS V12.07,2013-03-25 19:37:00,
2013-03-25 12:42:00,69.1,17.3,30.00,ENE,68,0.0,10.7,14,0.00,,---,0.00,VWS V12.07,2013-03-25 19:42:00,
2013-03-25 12:47:00,69.3,17.4,29.99,ENE,63,1.4,10.7,14,0.00,,---,0.00,VWS V12.07,2013-03-25 19:47:00,
2013-03-25 12:52:00,69.6,17.7,29.99,ENE,60,0.0,10.7,14,0.00,,---,0.00,VWS V12.07,2013-03-25 19:52:00,
2013-03-25 12:57:00,70.1,17.7,29.99,East,86,0.0,8.9,13,0.00,,---,0.00,VWS V12.07,2013-03-25 19:57:00,
2013-03-25 13:00:00,70.1,18.0,29.98,East,86,0.0,8.9,14,0.00,,---,0.00,VWS V12.07,2013-03-25 20:00:00,
2013-03-25 13:02:00,70.4,18.3,29.98,East,96,0.0,8.9,14,0.00,,---,0.00,VWS V12.07,2013-03-25 20:02:00,
2013-03-25 13:07:00,70.5,17.9,29.98,East,100,5.4,8.9,13,0.00,,---,0.00,VWS V12.07,2013-03-25 20:07:00,
2013-03-25 13:12:00,70.5,18.4,29.98,East,82,0.0,8.9,14,0.00,,---,0.00,VWS V12.07,2013-03-25 20:12:00,
2013-03-25 13:17:00,71.1,18.3,29.98,East,82,0.0,8.9,13,0.00,,---,0.00,VWS V12.07,2013-03-25 20:17:00,
2013-03-25 13:22:00,71.4,18.2,29.98,SSE,149,0.0,8.9,13,0.00,,---,0.00,VWS V12.07,2013-03-25 20:22:00,
2013-03-25 13:27:00,71.5,19.0,29.97,NW,321,0.0,8.9,14,0.00,,---,0.00,VWS V12.07,2013-03-25 20:27:00,
2013-03-25 13:30:00,71.9,18.8,29.97,SSE,153,3.3,6.8,13,0.00,,---,0.00,VWS V12.07,2013-03-25 20:30:00,
2013-03-25 13:32:00,71.9,18.1,29.97,NE,45,0.0,8.9,13,0.00,,---,0.00,VWS V12.07,2013-03-25 20:32:00,
2013-03-25 13:37:00,72.3,18.4,29.97,ENE,69,0.0,8.9,13,0.00,,---,0.00,VWS V12.07,2013-03-25 20:37:00,
2013-03-25 13:42:00,72.5,18.0,29.96,NNE,28,0.0,8.9,12,0.00,,---,0.00,VWS V12.07,2013-03-25 20:42:00,
2013-03-25 13:47:00,72.5,18.0,29.96,NNE,31,5.1,8.9,12,0.00,,---,0.00,VWS V12.07,2013-03-25 20:47:00,
2013-03-25 13:52:00,72.7,18.1,29.96,NE,34,0.0,8.9,12,0.00,,---,0.00,VWS V12.07,2013-03-25 20:52:00,
2013-03-25 13:57:00,72.5,18.2,29.96,ESE,103,0.0,8.6,13,0.00,,---,0.00,VWS V12.07,2013-03-25 20:57:00,
2013-03-25 14:00:00,72.2,18.5,29.96,NNE,17,5.8,8.6,13,0.00,,---,0.00,VWS V12.07,2013-03-25 21:00:00,
2013-03-25 14:03:00,72.4,18.6,29.96,North,3,0.0,8.6,13,0.00,,---,0.00,VWS V12.07,2013-03-25 21:03:00,
2013-03-25 14:08:00,72.9,18.9,29.95,East,98,0.0,8.6,13,0.00,,---,0.00,VWS V12.07,2013-03-25 21:08:00,
2013-03-25 14:13:00,73.2,19.1,29.95,East,94,0.0,8.6,13,0.00,,---,0.00,VWS V12.07,2013-03-25 21:13:00,
2013-03-25 14:18:00,72.9,18.7,29.95,East,80,3.5,8.6,13,0.00,,---,0.00,VWS V12.07,2013-03-25 21:18:00,
2013-03-25 14:23:00,73.4,19.1,29.95,North,352,0.0,8.6,13,0.00,,---,0.00,VWS V12.07,2013-03-25 21:23:00,
2013-03-25 14:28:00,74.2,18.8,29.95,NNE,18,6.6,8.6,12,0.00,,---,0.00,VWS V12.07,2013-03-25 21:28:00,
2013-03-25 14:30:00,74.4,18.3,29.95,NE,46,0.0,7.3,12,0.00,,---,0.00,VWS V12.07,2013-03-25 21:30:00,
2013-03-25 14:33:00,74.3,19.0,29.94,WNW,302,0.0,8.6,12,0.00,,---,0.00,VWS V12.07,2013-03-25 21:33:00,
2013-03-25 14:38:00,75.0,19.4,29.94,West,264,0.0,8.6,12,0.00,,---,0.00,VWS V12.07,2013-03-25 21:38:00,
2013-03-25 14:43:00,74.9,18.7,29.94,NE,35,0.0,8.6,12,0.00,,---,0.00,VWS V12.07,2013-03-25 21:43:00,
2013-03-25 14:48:00,75.2,19.3,29.94,North,354,0.0,8.6,12,0.00,,---,0.00,VWS V12.07,2013-03-25 21:48:00,
2013-03-25 14:53:00,75.6,19.3,29.94,North,354,0.0,8.6,12,0.00,,---,0.00,VWS V12.07,2013-03-25 21:53:00,
2013-03-25 14:58:00,76.1,19.5,29.94,SSE,166,4.3,6.6,12,0.00,,---,0.00,VWS V12.07,2013-03-25 21:58:00,
2013-03-25 15:00:00,76.1,19.3,29.94,South,190,0.0,6.6,12,0.00,,---,0.00,VWS V12.07,2013-03-25 22:00:00,
2013-03-25 15:03:00,76.2,19.5,29.94,South,190,0.0,6.6,12,0.00,,---,0.00,VWS V12.07,2013-03-25 22:03:00,
2013-03-25 15:08:00,76.1,19.1,29.94,South,169,0.0,6.6,12,0.00,,---,0.00,VWS V12.07,2013-03-25 22:08:00,
2013-03-25 15:13:00,75.7,19.7,29.93,SW,231,0.0,7.5,12,0.00,,---,0.00,VWS V12.07,2013-03-25 22:13:00,
2013-03-25 15:18:00,76.1,19.5,29.93,SW,231,0.0,7.5,12,0.00,,---,0.00,VWS V12.07,2013-03-25 22:18:00,
2013-03-25 15:23:00,76.7,19.3,29.93,SW,231,0.0,7.5,12,0.00,,---,0.00,VWS V12.07,2013-03-25 22:23:00,
2013-03-25 15:28:00,76.3,19.6,29.93,SSE,163,0.0,7.5,12,0.00,,---,0.00,VWS V12.07,2013-03-25 22:28:00,
2013-03-25 15:30:00,76.3,19.6,29.93,SSE,163,0.0,7.5,12,0.00,,---,0.00,VWS V12.07,2013-03-25 22:30:00,
2013-03-25 15:33:00,75.9,19.7,29.93,South,174,6.3,7.5,12,0.00,,---,0.00,VWS V12.07,2013-03-25 22:33:00,
2013-03-25 15:38:00,75.7,19.7,29.93,SW,231,0.0,7.5,12,0.00,,---,0.00,VWS V12.07,2013-03-25 22:38:00,
2013-03-25 15:43:00,75.6,19.8,29.92,West,274,0.0,7.5,12,0.00,,---,0.00,VWS V12.07,2013-03-25 22:43:00,
2013-03-25 15:48:00,75.7,19.7,29.92,SW,228,4.4,9.6,12,0.00,,---,0.00,VWS V12.07,2013-03-25 22:48:00,
2013-03-25 15:53:00,75.3,19.8,29.92,South,183,0.0,9.6,12,0.00,,---,0.00,VWS V12.07,2013-03-25 22:53:00,
2013-03-25 15:58:00,75.0,19.9,29.92,South,183,0.0,9.6,12,0.00,,---,0.00,VWS V12.07,2013-03-25 22:58:00,
2013-03-25 16:00:00,74.9,19.7,29.92,South,183,0.0,9.6,12,0.00,,---,0.00,VWS V12.07,2013-03-25 23:00:00,
2013-03-25 16:03:00,75.0,19.8,29.92,ESE,111,0.0,9.6,12,0.00,,---,0.00,VWS V12.07,2013-03-25 23:03:00,
2013-03-25 16:08:00,74.9,20.2,29.92,South,174,0.0,9.6,13,0.00,,---,0.00,VWS V12.07,2013-03-25 23:08:00,
2013-03-25 16:13:00,74.8,20.7,29.92,South,186,7.5,9.9,13,0.00,,---,0.00,VWS V12.07,2013-03-25 23:13:00,
2013-03-25 16:18:00,74.7,21.3,29.92,SSE,166,3.4,9.9,13,0.00,,---,0.00,VWS V12.07,2013-03-25 23:18:00,
2013-03-25 16:23:00,75.2,21.4,29.92,SW,222,5.2,11.2,13,0.00,,---,0.00,VWS V12.07,2013-03-25 23:23:00,
2013-03-25 16:28:00,74.9,21.0,29.92,SSW,197,6.3,16.2,13,0.00,,---,0.00,VWS V12.07,2013-03-25 23:28:00,
2013-03-25 16:30:00,74.8,21.1,29.92,South,183,7.8,16.2,13,0.00,,---,0.00,VWS V12.07,2013-03-25 23:30:00,
2013-03-25 16:33:00,74.4,21.3,29.92,SSE,166,0.0,16.2,14,0.00,,---,0.00,VWS V12.07,2013-03-25 23:33:00,
2013-03-25 16:38:00,74.2,21.0,29.92,WSW,250,0.0,16.2,13,0.00,,---,0.00,VWS V12.07,2013-03-25 23:38:00,
2013-03-25 16:43:00,74.2,21.1,29.92,South,169,4.8,16.2,14,0.00,,---,0.00,VWS V12.07,2013-03-25 23:43:00,
2013-03-25 16:48:00,73.9,20.9,29.92,South,180,6.6,16.2,14,0.00,,---,0.00,VWS V12.07,2013-03-25 23:48:00,
2013-03-25 16:53:00,73.8,21.1,29.92,SSW,211,0.0,16.2,14,0.00,,---,0.00,VWS V12.07,2013-03-25 23:53:00,
2013-03-25 16:58:00,73.5,20.9,29.92,South,176,5.9,14.1,14,0.00,,---,0.00,VWS V12.07,2013-03-25 23:58:00,
2013-03-25 17:00:00,73.3,20.8,29.92,SSW,202,4.2,14.1,14,0.00,,---,0.00,VWS V12.07,2013-03-26 00:00:00,
2013-03-25 17:03:00,73.2,21.0,29.92,SW,221,3.5,14.1,14,0.00,,---,0.00,VWS V12.07,2013-03-26 00:03:00,
2013-03-25 17:08:00,73.1,21.6,29.92,SW,215,3.0,14.1,14,0.00,,---,0.00,VWS V12.07,2013-03-26 00:08:00,
2013-03-25 17:13:00,72.7,21.1,29.92,SSW,211,5.2,14.1,14,0.00,,---,0.00,VWS V12.07,2013-03-26 00:13:00,
2013-03-25 17:18:00,72.2,21.2,29.92,SSW,202,7.6,15.8,14,0.00,,---,0.00,VWS V12.07,2013-03-26 00:18:00,
2013-03-25 17:24:00,71.7,21.1,29.92,South,187,5.5,15.8,15,0.00,,---,0.00,VWS V12.07,2013-03-26 00:24:00,
2013-03-25 17:29:00,71.7,21.3,29.92,SSE,149,5.4,15.8,15,0.00,,---,0.00,VWS V12.07,2013-03-26 00:29:00,
2013-03-25 17:30:00,71.6,21.1,29.92,SSW,198,7.3,15.8,15,0.00,,---,0.00,VWS V12.07,2013-03-26 00:30:00,
2013-03-25 17:34:00,71.6,21.5,29.92,SSW,205,0.0,15.8,15,0.00,,---,0.00,VWS V12.07,2013-03-26 00:34:00,
2013-03-25 17:39:00,71.5,21.3,29.92,South,179,6.8,15.8,15,0.00,,---,0.00,VWS V12.07,2013-03-26 00:39:00,
2013-03-25 17:44:00,71.4,21.4,29.93,SSW,198,5.3,15.8,15,0.00,,---,0.00,VWS V12.07,2013-03-26 00:44:00,
2013-03-25 17:49:00,71.0,21.2,29.93,SSW,195,4.6,15.8,15,0.00,,---,0.00,VWS V12.07,2013-03-26 00:49:00,
2013-03-25 17:54:00,70.8,21.4,29.93,South,170,7.8,15.8,15,0.00,,---,0.00,VWS V12.07,2013-03-26 00:54:00,
2013-03-25 17:59:00,70.3,21.4,29.93,SSW,205,3.5,13.9,16,0.00,,---,0.00,VWS V12.07,2013-03-26 00:59:00,
2013-03-25 18:00:00,70.2,21.3,29.93,South,176,3.4,13.9,16,0.00,,---,0.00,VWS V12.07,2013-03-26 01:00:00,
2013-03-25 18:04:00,69.9,21.4,29.93,SSW,193,10.2,13.9,16,0.00,,---,0.00,VWS V12.07,2013-03-26 01:04:00,
2013-03-25 18:09:00,69.5,21.4,29.93,SSW,198,5.8,13.9,16,0.00,,---,0.00,VWS V12.07,2013-03-26 01:09:00,
2013-03-25 18:14:00,69.2,21.4,29.94,South,181,5.7,13.9,16,0.00,,---,0.00,VWS V12.07,2013-03-26 01:14:00,
2013-03-25 18:19:00,68.8,21.5,29.94,South,190,7.1,14.7,16,0.00,,---,0.00,VWS V12.07,2013-03-26 01:19:00,
2013-03-25 18:24:00,68.4,21.6,29.94,South,179,8.5,14.7,17,0.00,,---,0.00,VWS V12.07,2013-03-26 01:24:00,
2013-03-25 18:29:00,68.2,21.6,29.94,South,181,7.5,14.7,17,0.00,,---,0.00,VWS V12.07,2013-03-26 01:29:00,
2013-03-25 18:30:00,68.1,21.5,29.94,South,187,5.5,14.7,17,0.00,,---,0.00,VWS V12.07,2013-03-26 01:30:00,
2013-03-25 18:34:00,67.9,21.8,29.94,South,181,0.0,14.7,17,0.00,,---,0.00,VWS V12.07,2013-03-26 01:34:00,
2013-03-25 18:39:00,67.5,21.6,29.94,South,172,0.0,14.7,17,0.00,,---,0.00,VWS V12.07,2013-03-26 01:39:00,
2013-03-25 18:44:00,67.2,21.8,29.94,South,172,0.0,14.7,18,0.00,,---,0.00,VWS V12.07,2013-03-26 01:44:00,
2013-03-25 18:49:00,67.1,21.8,29.95,South,172,0.0,14.7,18,0.00,,---,0.00,VWS V12.07,2013-03-26 01:49:00,
2013-03-25 18:54:00,66.7,21.8,29.95,South,172,0.0,14.7,18,0.00,,---,0.00,VWS V12.07,2013-03-26 01:54:00,
2013-03-25 18:59:00,66.3,22.0,29.95,South,179,0.0,7.5,18,0.00,,---,0.00,VWS V12.07,2013-03-26 01:59:00,
2013-03-25 19:00:00,66.3,22.1,29.95,South,179,0.0,7.5,18,0.00,,---,0.00,VWS V12.07,2013-03-26 02:00:00,
2013-03-25 19:04:00,65.9,21.8,29.95,SSW,204,0.0,7.5,18,0.00,,---,0.00,VWS V12.07,2013-03-26 02:04:00,
2013-03-25 19:09:00,66.0,21.8,29.95,South,191,0.0,7.5,18,0.00,,---,0.00,VWS V12.07,2013-03-26 02:09:00,
2013-03-25 19:14:00,65.8,21.8,29.95,SSW,198,6.2,9.1,18,0.00,,---,0.00,VWS V12.07,2013-03-26 02:14:00,
2013-03-25 19:19:00,65.6,21.6,29.95,SW,232,7.4,13.5,18,0.00,,---,0.00,VWS V12.07,2013-03-26 02:19:00,
2013-03-25 19:24:00,65.9,21.8,29.95,WSW,240,3.2,13.5,18,0.00,,---,0.00,VWS V12.07,2013-03-26 02:24:00,
2013-03-25 19:29:00,65.8,21.8,29.95,West,266,3.2,13.5,18,0.00,,---,0.00,VWS V12.07,2013-03-26 02:29:00,
2013-03-25 19:30:00,65.7,21.7,29.95,WSW,245,5.2,13.5,18,0.00,,---,0.00,VWS V12.07,2013-03-26 02:30:00,
2013-03-25 19:34:00,65.6,21.8,29.95,SW,228,4.6,13.5,19,0.00,,---,0.00,VWS V12.07,2013-03-26 02:34:00,
2013-03-25 19:39:00,65.5,21.8,29.96,West,281,6.5,13.5,19,0.00,,---,0.00,VWS V12.07,2013-03-26 02:39:00,
2013-03-25 19:44:00,65.6,22.1,29.96,West,271,6.4,13.5,19,0.00,,---,0.00,VWS V12.07,2013-03-26 02:44:00,
2013-03-25 19:49:00,65.4,21.9,29.96,South,180,0.0,13.5,19,0.00,,---,0.00,VWS V12.07,2013-03-26 02:49:00,
2013-03-25 19:54:00,65.3,21.9,29.96,ESE,122,0.0,13.5,19,0.00,,---,0.00,VWS V12.07,2013-03-26 02:54:00,
2013-03-25 19:59:00,64.9,22.2,29.96,ESE,122,0.0,12.6,19,0.00,,---,0.00,VWS V12.07,2013-03-26 02:59:00,
2013-03-25 20:00:00,65.0,22.3,29.96,ESE,122,0.0,12.6,19,0.00,,---,0.00,VWS V12.07,2013-03-26 03:00:00,
2013-03-25 20:04:00,64.1,22.4,29.96,ESE,122,0.0,12.6,20,0.00,,---,0.00,VWS V12.07,2013-03-26 03:04:00,
2013-03-25 20:09:00,63.8,22.2,29.96,ESE,112,3.2,12.6,20,0.00,,---,0.00,VWS V12.07,2013-03-26 03:09:00,
2013-03-25 20:14:00,63.7,22.5,29.97,SSW,198,0.0,12.6,20,0.00,,---,0.00,VWS V12.07,2013-03-26 03:14:00,
2013-03-25 20:19:00,63.5,22.8,29.96,SSW,194,0.0,12.6,21,0.00,,---,0.00,VWS V12.07,2013-03-26 03:19:00,
2013-03-25 20:24:00,63.1,22.2,29.97,South,177,0.0,12.6,21,0.00,,---,0.00,VWS V12.07,2013-03-26 03:24:00,
2013-03-25 20:29:00,63.5,22.4,29.97,South,177,0.0,12.6,21,0.00,,---,0.00,VWS V12.07,2013-03-26 03:29:00,
2013-03-25 20:30:00,63.5,22.4,29.97,South,177,0.0,6.8,21,0.00,,---,0.00,VWS V12.07,2013-03-26 03:30:00,
2013-03-25 20:34:00,63.3,22.4,29.97,South,177,0.0,12.6,21,0.00,,---,0.00,VWS V12.07,2013-03-26 03:34:00,
2013-03-25 20:39:00,62.9,22.7,29.98,South,177,0.0,12.6,21,0.00,,---,0.00,VWS V12.07,2013-03-26 03:39:00,
2013-03-25 20:44:00,62.4,22.8,29.98,SW,222,0.0,12.6,22,0.00,,---,0.00,VWS V12.07,2013-03-26 03:44:00,
2013-03-25 20:49:00,61.9,23.2,29.98,SW,222,0.0,12.6,22,0.00,,---,0.00,VWS V12.07,2013-03-26 03:49:00,
2013-03-25 20:54:00,61.3,23.6,29.99,SW,222,0.0,12.6,23,0.00,,---,0.00,VWS V12.07,2013-03-26 03:54:00,
2013-03-25 20:59:00,60.5,24.0,29.99,SW,222,0.0,4.9,24,0.00,,---,0.00,VWS V12.07,2013-03-26 03:59:00,
2013-03-25 21:00:00,60.5,24.0,29.99,SW,222,0.0,4.9,24,0.00,,---,0.00,VWS V12.07,2013-03-26 04:00:00,
2013-03-25 21:05:00,60.0,24.2,29.99,WNW,285,0.0,5.3,25,0.00,,---,0.00,VWS V12.07,2013-03-26 04:05:00,
2013-03-25 21:10:00,59.5,24.1,29.99,NW,308,0.0,5.3,26,0.00,,---,0.00,VWS V12.07,2013-03-26 04:10:00,
2013-03-25 21:15:00,59.2,24.3,29.99,NW,308,0.0,5.3,26,0.00,,---,0.00,VWS V12.07,2013-03-26 04:15:00,
2013-03-25 21:20:00,58.8,24.4,30.00,NW,308,0.0,5.3,26,0.00,,---,0.00,VWS V12.07,2013-03-26 04:20:00,
2013-03-25 21:25:00,58.6,24.5,30.00,NW,308,0.0,5.3,27,0.00,,---,0.00,VWS V12.07,2013-03-26 04:25:00,
2013-03-25 21:30:00,58.3,24.2,30.00,NW,308,0.0,5.3,27,0.00,,---,0.00,VWS V12.07,2013-03-26 04:30:00,
2013-03-25 21:35:00,58.6,24.2,30.00,WNW,290,0.0,5.3,26,0.00,,---,0.00,VWS V12.07,2013-03-26 04:35:00,
2013-03-25 21:40:00,58.8,24.0,30.01,WNW,290,0.0,5.3,26,0.00,,---,0.00,VWS V12.07,2013-03-26 04:40:00,
2013-03-25 21:45:00,59.1,24.1,30.01,WNW,302,0.0,5.3,26,0.00,,---,0.00,VWS V12.07,2013-03-26 04:45:00,
2013-03-25 21:50:00,59.1,24.3,30.01,WNW,302,0.0,5.3,26,0.00,,---,0.00,VWS V12.07,2013-03-26 04:50:00,
2013-03-25 21:55:00,58.9,24.2,30.01,WNW,302,0.0,3.4,26,0.00,,---,0.00,VWS V12.07,2013-03-26 04:55:00,
2013-03-25 22:00:00,58.6,24.1,30.01,WNW,302,0.0,3.4,26,0.00,,---,0.00,VWS V12.07,2013-03-26 05:00:00,
2013-03-25 22:05:00,58.2,24.5,30.01,WNW,302,0.0,3.4,27,0.00,,---,0.00,VWS V12.07,2013-03-26 05:05:00,
2013-03-25 22:10:00,57.8,24.4,30.02,WNW,302,0.0,3.4,27,0.00,,---,0.00,VWS V12.07,2013-03-26 05:10:00,
2013-03-25 22:15:00,57.8,24.3,30.02,West,278,0.0,3.4,27,0.00,,---,0.00,VWS V12.07,2013-03-26 05:15:00,
2013-03-25 22:21:00,57.9,24.8,30.02,West,278,0.0,3.4,28,0.00,,---,0.00,VWS V12.07,2013-03-26 05:21:00,
2013-03-25 22:26:00,57.4,24.7,30.02,West,278,0.0,3.4,28,0.00,,---,0.00,VWS V12.07,2013-03-26 05:26:00,
2013-03-25 22:30:00,56.9,24.7,30.02,West,278,0.0,2.9,29,0.00,,---,0.00,VWS V12.07,2013-03-26 05:30:00,
2013-03-25 22:31:00,56.9,24.8,30.02,West,278,0.0,3.4,29,0.00,,---,0.00,VWS V12.07,2013-03-26 05:31:00,
2013-03-25 22:36:00,56.4,24.6,30.01,West,278,0.0,3.4,29,0.00,,---,0.00,VWS V12.07,2013-03-26 05:36:00,
2013-03-25 22:41:00,56.5,24.6,30.01,West,278,0.0,3.4,29,0.00,,---,0.00,VWS V12.07,2013-03-26 05:41:00,
2013-03-25 22:46:00,56.3,24.6,30.01,West,259,0.0,5.8,29,0.00,,---,0.00,VWS V12.07,2013-03-26 05:46:00,
2013-03-25 22:51:00,56.1,24.6,30.01,West,266,3.5,5.8,29,0.00,,---,0.00,VWS V12.07,2013-03-26 05:51:00,
2013-03-25 22:56:00,55.8,24.5,30.01,West,266,0.0,5.8,30,0.00,,---,0.00,VWS V12.07,2013-03-26 05:56:00,
2013-03-25 23:00:00,55.9,24.5,30.01,West,266,0.0,5.8,29,0.00,,---,0.00,VWS V12.07,2013-03-26 06:00:00,
2013-03-25 23:01:00,56.0,24.5,30.01,West,269,0.0,5.8,29,0.00,,---,0.00,VWS V12.07,2013-03-26 06:01:00,
2013-03-25 23:06:00,56.1,24.5,30.01,West,269,0.0,5.8,29,0.00,,---,0.00,VWS V12.07,2013-03-26 06:06:00,
2013-03-25 23:11:00,55.9,24.8,30.01,West,269,0.0,5.8,30,0.00,,---,0.00,VWS V12.07,2013-03-26 06:11:00,
2013-03-25 23:16:00,55.3,24.7,30.01,West,269,0.0,5.8,30,0.00,,---,0.00,VWS V12.07,2013-03-26 06:16:00,
2013-03-25 23:21:00,54.9,24.9,30.01,West,269,0.0,5.8,31,0.00,,---,0.00,VWS V12.07,2013-03-26 06:21:00,
2013-03-25 23:26:00,54.5,24.8,30.01,West,269,0.0,5.8,31,0.00,,---,0.00,VWS V12.07,2013-03-26 06:26:00,
2013-03-25 23:30:00,54.4,25.0,30.01,West,269,0.0,4.3,32,0.00,,---,0.00,VWS V12.07,2013-03-26 06:30:00,
2013-03-25 23:31:00,54.2,25.1,30.01,West,269,0.0,5.8,32,0.00,,---,0.00,VWS V12.07,2013-03-26 06:31:00,
2013-03-25 23:36:00,53.8,25.2,30.01,West,269,0.0,5.8,33,0.00,,---,0.00,VWS V12.07,2013-03-26 06:36:00,
2013-03-25 23:41:00,53.3,25.4,30.01,West,269,0.0,5.8,34,0.00,,---,0.00,VWS V12.07,2013-03-26 06:41:00,
2013-03-25 23:46:00,52.9,25.5,30.01,West,269,0.0,5.8,34,0.00,,---,0.00,VWS V12.07,2013-03-26 06:46:00,
2013-03-25 23:51:00,52.3,25.3,30.01,West,269,0.0,5.8,35,0.00,,---,0.00,VWS V12.07,2013-03-26 06:51:00,
2013-03-25 23:56:00,52.1,25.2,30.01,West,269,0.0,0.0,35,0.00,,---,0.00,VWS V12.07,2013-03-26 06:56:00,